Regional Weather Roundup
Issued by NWS Kansas City/Pleasant Hill, MO

Home | Current Version | Previous Version | Graphics & Text | Print | Product List | Glossary Off
Versions: 1 2 3 4 5 6 7 8 9 10 11 12 13 14 15 16 17 18 19 20 21 22 23 24 25 26 27 28 29 30 31 32 33 34 35 36 37 38 39 40 41 42 43 44 45 46 47 48 49 50

000
ASUS43 KEAX 242110
RWREAX

WEATHER ROUNDUP FOR EASTERN KANSAS AND NORTHWEST MISSOURI
NATIONAL WEATHER SERVICE KANSAS CITY/PLEASANT HILL MO
400 PM CDT SUN MAY 24 2015

KSZ040-057-103>105-MOZ028-029-037-043-242200-
...KANSAS CITY METROPOLITAN AREA...

CITY           SKY/WX    TMP DP  RH WIND       PRES   REMARKS
K.C. INTL      CLOUDY    69  64  84 S12       29.86S
K.C. DOWNTOWN  CLOUDY    72  63  73 S7        29.85S
LEES SUMMIT    CLOUDY    68  64  87 S7        29.87S
OLATHE - IXD   CLOUDY    70  61  73 S9        29.87F
OLATHE - OJC   CLOUDY    69  63  81 S7        29.86F
LAWRENCE       LGT RAIN  70  62  76 SW10      29.86S

$$

MOZ001>008-011>017-020>025-030>033-038>040-044>046-053-054-242200-
...NORTHERN AND CENTRAL MISSOURI...

CITY           SKY/WX    TMP DP  RH WIND       PRES   REMARKS
ST. JOSEPH     CLOUDY    70  63  78 S8        29.84S
MOSBY          CLOUDY    68  63  83 S6        29.85S
WARRENSBURG    RAIN      64  63  94 SW6       29.88S
WHITEMAN AFB   DRIZZLE   68  66  94 SW7       29.86F
CLINTON        CLOUDY    68  66  94 S7        29.89F
SEDALIA        LGT RAIN  70  64  81 SW12      29.88S
WARSAW         NOT AVBL
CHILLICOTHE      N/A     68  64  87 S3        29.85F
KIRKSVILLE     HVY RAIN  68  67  96 W5        29.84F FOG

$$

MOZ041-047>049-056>058-063>065-088>090-097-242200-
...EASTERN AND SOUTHERN MISSOURI...

CITY           SKY/WX    TMP DP  RH WIND       PRES   REMARKS
ST. LOUIS INTL PTSUNNY   85  64  49 S20G29    29.92F
SPIRIT OF STL  PTSUNNY   85  64  49 S9G21     29.89F
COLUMBIA       LGT RAIN  69  67  93 S14       29.90R
JEFFERSON CITY RAIN      69  65  86 SW14G22   29.89S FOG
ROLLA          PTSUNNY   80  67  64 S15       29.88F
OSAGE BEACH    CLOUDY    72  66  83 SW10      29.89F
SPRINGFIELD    CLOUDY    69  64  84 SW9       29.90F
BRANSON        CLOUDY    66  64  94 W7        29.93F
JOPLIN         CLOUDY    67  64  90 SW6       29.91
WEST PLAINS    CLOUDY    76  66  71 S13G20    29.93F

$$

IAZ060-094-KSZ022-034>040-054-083-096-NEZ052-066-093-242200-
...KANSAS...SOUTHEAST NEBRASKA AND IOWA...

CITY           SKY/WX    TMP DP  RH WIND       PRES   REMARKS
TOPEKA         CLOUDY    70  62  76 S12       29.86S
MANHATTAN      CLOUDY    69  62  78 S15       29.84S
EMPORIA        LGT RAIN  66  62  87 S12       29.88R
CHANUTE        LGT RAIN  66  63  90 S8        29.89S
WICHITA        CLOUDY    66  61  84 S13       29.86S
OMAHA          CLOUDY    68  62  81 SW7       29.81S
LINCOLN        CLOUDY    69  61  75 S5        29.81F
FALLS CITY     CLOUDY    70  62  76 S12       29.82F
LAMONI         CLOUDY    72  64  76 S12       29.83F
DES MOINES     CLOUDY    71  64  78 S12       29.81F

$$




USA.gov is the U.S. government's official web portal to all federal, state and local government web resources and services.